Location: Unspecified
(43.8044°N, 11.0278°E)
Time: 01:45:45
(UTC+01:00)

Okean 3 - Visible Passes

Search period start: 06 December 2016 00:00
Search period end: 16 December 2016 00:00
Orbit: 578 x 603 km, 82.5° (Epoch: 04 December)

Date Brightness Start Highest point End Pass type
(mag) Time Alt. Az. Time Alt. Az. Time Alt. Az.
06 Dec 5.8 17:57:59 10° SW 18:01:26 23° WNW 18:04:53 10° NNW visible
07 Dec 6.3 18:07:15 10° WSW 18:09:58 16° WNW 18:12:41 10° NNW visible
08 Dec 6.5 18:17:13 10° W 18:18:32 11° WNW 18:19:51 10° NW visible
12 Dec 5.8 17:11:00 10° SW 17:14:26 23° WNW 17:17:53 10° NNW visible
13 Dec 6.2 17:20:14 10° WSW 17:22:58 16° WNW 17:25:41 10° NNW visible
14 Dec 6.4 17:30:10 10° W 17:31:32 11° WNW 17:32:53 10° NW visible
